Strona główna
METAR-TAF:

METAR-TAF

Lotnisko :

Sisseton Municipal Airport

Sisseton, Dakota Południowa, Stany Zjednoczone

Szerokość geograficzna: 45-40-08N, Długość geograficzna: 096-59-29W, wysokość: 354 m

Aktualna obserwacja pogody

Raport powstał 1 godzina i 3 minut temu, godzina 03:56 UTC
Wiatr 8 kt od północno-północny zachód
Temperatura 20°C
Wilgotność 56%
Ciśnienie 1015 hPa

METAR: K8D3 280356Z AUTO 33008KT 20/11 A2996 RMK AO1 SLP127 T02000111

czas: 23:59 (04:59 UTC)


TAF: brakujący

Obserwacja i prognoza pogody dla ponad 4000 lotnisk (raport METAR i TAF).

Dostępne stacje oznaczono żółtymi i czerwonymi punktami na mapie.

Najedź kursorem aby zobaczyć nazwę stacji.

Kliknij aby zobaczyć obserwacje i prognozy pogody.

Aby zmienić mapę: kliknij na zielony przycisk z czarnym krzyżykiem, aby powiększyć; na zielony przycisk z myślnikiem, aby pomniejszyć; na zielone strzałki, aby przejść do map sąsiednich.


METAR-TAF: